• In Belgien
  • Länderverzeichnis
  • Für 7 Tage
  • Wassertemperatur
  • Satellitenkarten
  • Wetterkarte
  • Widgets
  • user-avatar
    Anmelden

    Stündliche Wetter Darwin

    Heute, 23 November, Donnerstag

    Zeit Temperatur Niederschläge Wind Luftdruck Luftfeuchtigkeit
    00:00 +30°C° 0 mm 1 m/S 754 mmHg 75%
    01:00 +30°C° 0,1 mm 1 m/S 754 mmHg 76%
    02:00 +30°C° 0,1 mm 1 m/S 754 mmHg 76%
    03:00 +29°C° 0 mm 1 m/S 753 mmHg 77%
    04:00 +29°C° 0 mm 1 m/S 754 mmHg 78%
    05:00 +29°C° 0 mm 1 m/S 754 mmHg 79%
    06:00 +29°C° 0 mm 1 m/S 754 mmHg 80%
    07:00 +31°C° 0 mm 1 m/S 754 mmHg 71%
    08:00 +33°C° 0 mm 1 m/S 754 mmHg 62%
    09:00 +36°C° 0 mm 2 m/S 754 mmHg 54%
    10:00 +37°C° 0 mm 2 m/S 754 mmHg 49%
    11:00 +39°C° 0 mm 2 m/S 754 mmHg 44%
    12:00 +40°C° 0 mm 2 m/S 754 mmHg 40%
    13:00 +39°C° 0,2 mm 3 m/S 753 mmHg 42%
    14:00 +39°C° 0,2 mm 3 m/S 753 mmHg 44%
    15:00 +35°C° 0 mm 2 m/S 753 mmHg 58%
    16:00 +34°C° 1 mm 2 m/S 753 mmHg 62%
    17:00 +34°C° 1 mm 2 m/S 753 mmHg 66%
    18:00 +32°C° 1 mm 2 m/S 753 mmHg 70%
    19:00 +31°C° 0 mm 2 m/S 754 mmHg 71%
    20:00 +31°C° 0 mm 3 m/S 754 mmHg 73%
    21:00 +31°C° 0 mm 3 m/S 755 mmHg 75%
    22:00 +30°C° 0,2 mm 3 m/S 755 mmHg 77%
    23:00 +30°C° 0,2 mm 3 m/S 755 mmHg 78%

    Morgen, 24 November, Freitag

    Zeit Temperatur Niederschläge Wind Luftdruck Luftfeuchtigkeit
    00:00 +30°C° 0,2 mm 3 m/S 755 mmHg 80%
    01:00 +30°C° 0 mm 3 m/S 754 mmHg 81%
    02:00 +30°C° 0 mm 3 m/S 754 mmHg 82%
    03:00 +29°C° 0 mm 3 m/S 754 mmHg 83%
    04:00 +29°C° 0 mm 3 m/S 754 mmHg 83%
    05:00 +29°C° 0 mm 2 m/S 755 mmHg 84%
    06:00 +29°C° 0 mm 2 m/S 755 mmHg 84%
    07:00 +31°C° 0 mm 3 m/S 755 mmHg 76%
    08:00 +33°C° 0 mm 3 m/S 756 mmHg 68%
    09:00 +35°C° 0 mm 3 m/S 756 mmHg 60%
    10:00 +36°C° 0 mm 3 m/S 755 mmHg 55%
    11:00 +38°C° 0 mm 3 m/S 755 mmHg 50%
    12:00 +39°C° 0 mm 3 m/S 755 mmHg 44%
    13:00 +40°C° 0 mm 4 m/S 754 mmHg 45%
    14:00 +40°C° 0 mm 4 m/S 754 mmHg 45%
    15:00 +38°C° 0 mm 4 m/S 753 mmHg 45%
    16:00 +37°C° 0 mm 4 m/S 754 mmHg 49%
    17:00 +36°C° 0 mm 4 m/S 754 mmHg 54%
    18:00 +35°C° 0 mm 4 m/S 754 mmHg 59%
    19:00 +34°C° 0,6 mm 5 m/S 754 mmHg 64%
    20:00 +33°C° 0,6 mm 5 m/S 755 mmHg 69%
    21:00 +32°C° 0,6 mm 5 m/S 755 mmHg 75%
    22:00 +32°C° 1 mm 4 m/S 755 mmHg 76%
    23:00 +32°C° 1 mm 4 m/S 756 mmHg 77%

    übermorgen, 25 November, Samstag

    Zeit Temperatur Niederschläge Wind Luftdruck Luftfeuchtigkeit
    00:00 +30°C° 1 mm 4 m/S 756 mmHg 78%
    01:00 +30°C° 0,3 mm 3 m/S 755 mmHg 79%
    02:00 +30°C° 0,3 mm 3 m/S 755 mmHg 80%
    03:00 +30°C° 0,3 mm 2 m/S 755 mmHg 81%
    04:00 +29°C° 0,4 mm 2 m/S 755 mmHg 81%
    05:00 +29°C° 0,4 mm 2 m/S 755 mmHg 82%
    06:00 +29°C° 0,4 mm 1 m/S 756 mmHg 83%
    07:00 +31°C° 0 mm 1 m/S 756 mmHg 75%
    08:00 +32°C° 0 mm 2 m/S 757 mmHg 68%
    09:00 +35°C° 0 mm 2 m/S 757 mmHg 61%
    10:00 +36°C° 0,1 mm 2 m/S 757 mmHg 57%
    11:00 +37°C° 0,1 mm 2 m/S 756 mmHg 52%
    12:00 +37°C° 0,1 mm 2 m/S 756 mmHg 47%
    13:00 +37°C° 0,3 mm 2 m/S 755 mmHg 47%
    14:00 +37°C° 0,3 mm 3 m/S 754 mmHg 47%
    15:00 +38°C° 0,3 mm 3 m/S 754 mmHg 47%
    16:00 +37°C° 0,1 mm 3 m/S 754 mmHg 49%
    17:00 +36°C° 0,1 mm 3 m/S 754 mmHg 51%
    18:00 +35°C° 0,1 mm 2 m/S 754 mmHg 54%
    19:00 +35°C° 0 mm 3 m/S 754 mmHg 58%
    20:00 +34°C° 0 mm 3 m/S 755 mmHg 62%
    21:00 +33°C° 0 mm 3 m/S 755 mmHg 66%
    22:00 +31°C° 0 mm 3 m/S 755 mmHg 69%
    23:00 +31°C° 0 mm 3 m/S 755 mmHg 72%

    26 November, Sonntag

    Zeit Temperatur Niederschläge Wind Luftdruck Luftfeuchtigkeit
    00:00 +31°C° 0 mm 3 m/S 755 mmHg 75%
    01:00 +30°C° 0,2 mm 3 m/S 755 mmHg 77%
    02:00 +30°C° 0,2 mm 2 m/S 755 mmHg 79%
    03:00 +29°C° 0,2 mm 2 m/S 755 mmHg 81%
    04:00 +29°C° 0,2 mm 2 m/S 755 mmHg 82%
    05:00 +29°C° 0,2 mm 2 m/S 755 mmHg 83%
    06:00 +29°C° 0,2 mm 2 m/S 755 mmHg 84%
    07:00 +31°C° 0 mm 2 m/S 756 mmHg 76%
    08:00 +32°C° 0 mm 2 m/S 756 mmHg 68%
    09:00 +35°C° 0 mm 2 m/S 756 mmHg 60%
    10:00 +36°C° 0 mm 2 m/S 756 mmHg 56%
    11:00 +37°C° 0 mm 2 m/S 756 mmHg 52%
    12:00 +37°C° 0 mm 2 m/S 755 mmHg 48%
    13:00 +38°C° 0,1 mm 2 m/S 754 mmHg 47%
    14:00 +38°C° 0,1 mm 2 m/S 754 mmHg 45%
    15:00 +39°C° 0,1 mm 2 m/S 753 mmHg 44%
    16:00 +38°C° 0,1 mm 2 m/S 753 mmHg 47%
    17:00 +37°C° 0,1 mm 3 m/S 753 mmHg 50%
    18:00 +36°C° 0,1 mm 3 m/S 753 mmHg 53%
    19:00 +35°C° 0,2 mm 3 m/S 754 mmHg 58%
    20:00 +34°C° 0,2 mm 4 m/S 754 mmHg 64%
    21:00 +32°C° 0,2 mm 5 m/S 754 mmHg 69%
    22:00 +32°C° 0,3 mm 4 m/S 754 mmHg 73%
    23:00 +31°C° 0,3 mm 3 m/S 754 mmHg 76%

    27 November, Montag

    Zeit Temperatur Niederschläge Wind Luftdruck Luftfeuchtigkeit
    00:00 +30°C° 0,3 mm 3 m/S 754 mmHg 79%
    01:00 +30°C° 1,1 mm 2 m/S 754 mmHg 81%
    02:00 +29°C° 1,1 mm 1 m/S 754 mmHg 83%
    03:00 +29°C° 1,1 mm 1 m/S 753 mmHg 85%
    04:00 +29°C° 0,6 mm 1 m/S 754 mmHg 85%
    05:00 +28°C° 0,6 mm 1 m/S 754 mmHg 85%
    06:00 +28°C° 0,6 mm 1 m/S 755 mmHg 85%
    07:00 +30°C° 0 mm 1 m/S 755 mmHg 76%
    08:00 +32°C° 0 mm 1 m/S 755 mmHg 67%
    09:00 +34°C° 0 mm 2 m/S 756 mmHg 59%
    10:00 +36°C° 0 mm 2 m/S 755 mmHg 53%
    11:00 +37°C° 0 mm 2 m/S 754 mmHg 47%
    12:00 +39°C° 0 mm 2 m/S 754 mmHg 42%
    13:00 +39°C° 0 mm 3 m/S 753 mmHg 43%
    14:00 +38°C° 0 mm 3 m/S 753 mmHg 44%
    15:00 +38°C° 0 mm 3 m/S 752 mmHg 44%
    16:00 +37°C° 0,1 mm 3 m/S 752 mmHg 48%
    17:00 +36°C° 0,1 mm 3 m/S 752 mmHg 51%
    18:00 +35°C° 0,1 mm 3 m/S 752 mmHg 55%
    19:00 +34°C° 0,1 mm 2 m/S 753 mmHg 59%
    20:00 +32°C° 0,1 mm 2 m/S 753 mmHg 63%
    21:00 +31°C° 0,1 mm 2 m/S 754 mmHg 67%
    22:00 +31°C° 0 mm 2 m/S 754 mmHg 69%
    23:00 +31°C° 0 mm 2 m/S 754 mmHg 71%

    28 November, Dienstag

    Zeit Temperatur Niederschläge Wind Luftdruck Luftfeuchtigkeit
    00:00 +30°C° 0 mm 2 m/S 754 mmHg 73%
    01:00 +30°C° 0 mm 2 m/S 753 mmHg 75%
    02:00 +30°C° 0 mm 2 m/S 753 mmHg 77%
    03:00 +30°C° 0 mm 2 m/S 753 mmHg 79%
    04:00 +29°C° 0,2 mm 2 m/S 753 mmHg 80%
    05:00 +29°C° 0,2 mm 2 m/S 754 mmHg 81%
    06:00 +29°C° 0,2 mm 3 m/S 754 mmHg 82%
    07:00 +31°C° 0,3 mm 3 m/S 755 mmHg 75%
    08:00 +33°C° 0,3 mm 3 m/S 755 mmHg 67%
    09:00 +35°C° 0,3 mm 3 m/S 755 mmHg 60%
    10:00 +36°C° 0 mm 3 m/S 755 mmHg 56%
    11:00 +37°C° 0 mm 3 m/S 755 mmHg 52%
    12:00 +38°C° 0 mm 3 m/S 754 mmHg 47%
    13:00 +38°C° 0,5 mm 2 m/S 754 mmHg 49%
    14:00 +37°C° 0,5 mm 2 m/S 753 mmHg 50%
    15:00 +37°C° 0,5 mm 2 m/S 752 mmHg 51%
    16:00 +36°C° 0,6 mm 2 m/S 753 mmHg 54%
    17:00 +35°C° 0,6 mm 3 m/S 753 mmHg 57%
    18:00 +35°C° 0,6 mm 3 m/S 753 mmHg 60%
    19:00 +34°C° 0,7 mm 3 m/S 754 mmHg 65%
    20:00 +32°C° 0,7 mm 2 m/S 754 mmHg 70%
    21:00 +30°C° 0,7 mm 2 m/S 755 mmHg 75%
    22:00 +30°C° 0,2 mm 2 m/S 755 mmHg 76%
    23:00 +30°C° 0,2 mm 2 m/S 755 mmHg 77%
    Mehr zeigen